Starlink 32758

operational
NORAD ID: 62744 Int'l Des: 2025-014 Owner: SPXS Country: US Constellation: starlink
LEOCIRCULAR

关于 Starlink 32758

正在加载描述...

实时位置

正在加载3D地球...

即将过境

高度历史

Altitude vs Time

uPlot chart will show altitude changes over time

两行轨道根数

1 62744U 25014K 25354.41201367 .00023359 00000-0 85558-3 0 9994
2 62744 43.0006 245.5095 0001456 266.4614 93.6071 15.27583877 51097
Epoch: Dec 20, 2025 • Age: 15 hours

当前状态

高度 483.4 km
速度 7.63 km/s
星下点 24.51°N, 66.4°W
发射日期 Jan 21, 2025
运行时间 0.9 years
类型 internet

技术详情

分类 Payload
质量 730.00 kg
干质量 700.00 kg
总质量 730.00 kg
长度 0.30 m
直径 4.10 m
跨度 29.00 m
形状 Box + pan
制造商 SPXS
平台类型 Starlink V2M
阶段状态 In Orbit
所有者/国家 SPXS/US

大型星座

Loading constellations...